Asyut, Egypt

1:38 PM EET on February 28, 2017 (GMT +0200)
Asyut

Weather History for HEAT - December, 2013

Change the Weather History Date:

Monday, December 2, 2013

  Actual Average Record
Temperature  
Mean Temperature 78 °F -  
Max Temperature 95 °F 69 °F - ()
Min Temperature 61 °F 44 °F - ()
Cooling Degree Days 13    
Growing Degree Days 28 (Base 50)    
Moisture  
Dew Point 57 °F    
Average Humidity 51    
Maximum Humidity 82    
Minimum Humidity 19    
Precipitation  
Precipitation 0.00 in 0.00 in - ()
Sea Level Pressure  
Sea Level Pressure 30.01 in    
Wind  
Wind Speed 5 mph ()    
Max Wind Speed 9 mph    
Max Gust Speed -    
Visibility 6.0 miles    
Events      
T = Trace of Precipitation, MM = Missing Value Source: Averaged Metar Reports

Daily Weather History Graph

Daily Weather History Graph

Search for Another Location

Airport or City:

Trip Planner

Search our weather history database for the weather conditions in past years. The results will help you decide how hot, cold, wet, or windy it might be!

Date:

Astronomy

Dec. 02, 2013 Rise Set
Actual Time 6:28 AM EET 5:01 PM EET
Civil Twilight 6:03 AM EET 5:27 PM EET
Nautical Twilight 5:34 AM EET 5:55 PM EET
Astronomical Twilight 5:06 AM EET 6:24 PM EET
Moon 5:35 AM EET (12/2) 4:42 PM EET (12/2)
Length of Visible Light 11h 23m
Length of Day
10h 33m
Waning Crescent, 1% of the Moon is Illuminated
Dec 2
Waning Crescent
Dec 3
New
Dec 9
First Quarter
Dec 17
Full
Dec 25
Last Quarter

Hourly Weather History & Observations

Time (EET) Temp. Heat Index Dew Point Humidity Pressure Visibility Wind Dir Wind Speed Gust Speed Precip Events Conditions
12:00 AM 68.0 °F - 60.8 °F 78% 30.04 in - SE 6.9 mph - N/A   Clear
1:00 AM 68.0 °F - 60.8 °F 78% 30.04 in - SE 9.2 mph - N/A   Clear
2:00 AM 66 °F - 58 °F 67% 30.02 in 6 mi SE 6.9 mph - -  
2:00 AM 66.2 °F - 57.2 °F 73% 30.04 in - SE 6.9 mph - N/A   Clear
4:00 AM 64.4 °F - 57.2 °F 77% 30.04 in - ESE 4.6 mph - N/A   Clear
5:00 AM 63 °F - 57 °F 74% 30.02 in 6 mi SE 6.9 mph - -  
6:00 AM 62.6 °F - 57.2 °F 82% 30.04 in - SE 6.9 mph - N/A   Clear
8:00 AM 65 °F - 57 °F 68% 30.03 in 6 mi SE 4.6 mph - -  
10:00 AM 75.2 °F - 55.4 °F 50% 30.06 in - SE 8.1 mph - N/A   Clear
11:00 AM 84 °F - 56 °F 28% 30.04 in 6 mi SSE 9.2 mph - -  
11:00 AM 84.2 °F 83.0 °F 55.4 °F 37% 30.06 in - SSE 9.2 mph - N/A   Clear
12:00 PM 87.8 °F 86.1 °F 55.4 °F 33% 30.04 in - SSE 9.2 mph - N/A   Clear
1:00 PM 89.6 °F 87.7 °F 55.4 °F 31% 30.01 in - SSE 5.8 mph - N/A   Clear
2:00 PM 94 °F - 57 °F 19% 29.95 in 6 mi ESE 5.8 mph - -  
2:00 PM 95.0 °F 93.7 °F 57.2 °F 28% 30.01 in - ESE 5.8 mph - N/A   Clear
3:00 PM 93.2 °F 91.9 °F 57.2 °F 30% 29.98 in - ESE 2.3 mph - N/A   Clear
4:00 PM 91.4 °F 89.9 °F 57.2 °F 31% 29.98 in - ESE 2.3 mph - N/A   Clear
5:00 PM 87 °F - 59 °F 29% 29.95 in 6 mi East 3.5 mph - -  
5:00 PM 87.8 °F 87.1 °F 59.0 °F 38% 29.98 in - East 3.5 mph - N/A   Clear
6:00 PM 87.8 °F 87.1 °F 59.0 °F 38% 29.98 in - East 3.5 mph - N/A   Clear
7:00 PM 82.4 °F 82.0 °F 57.2 °F 42% 30.01 in - ESE 2.3 mph - N/A   Clear
8:00 PM 75 °F - 59 °F 48% 30.00 in 6 mi NNE 1.2 mph - -  
8:00 PM 75.2 °F - 59.0 °F 57% 30.01 in - NNE 1.2 mph - N/A   Clear
9:00 PM 71.6 °F - 59.0 °F 64% 30.01 in - ESE 2.3 mph - N/A   Clear
10:00 PM 69.8 °F - 59.0 °F 68% 30.01 in - ESE 2.3 mph - N/A   Clear
11:00 PM 68 °F - 55 °F 53% 30.01 in 6 mi SSE 3.5 mph - -  
11:00 PM 68.0 °F - 55.4 °F 64% 30.01 in - SSE 3.5 mph - N/A   Clear